マクノート彗星

C/2006 K1 ( McNaught )

English version
Home page
Updated on January 20, 2013

---------------------------------------------------------------------

・ プロフィール

発見日 2006年5月17日
発見光度 17.6等
発見者 R. H. McNaught (Siding Spring Survey)

・ 軌道要素

Epoch 2007 Aug. 8.0 TT = JDT 2454320.5
T 2007 July 20.55239 TT                                 MPC
q   4.4255241            (2000.0)            P               Q
z  -0.0003367      Peri.  296.44241     +0.63909369     +0.02515464
 +/-0.0000010      Node    72.11484     +0.52777028     +0.71268846
e   1.0014899      Incl.   53.87697     -0.55947993     +0.70102953
From 395 observations 2006 May 17-2009 Feb. 28, mean residual 0".5.

・ 星図

・ 光度変化

        m1 = 6.5 + 5 logΔ + 10.0 log r

---------------------------------------------------------------------

軌道要素はM.P.E.C. 2013-A29に掲載されたものです。
星図は StellaNavigator Ver.2.0 for Windows (アストロアーツ 編著 / アスキー出版局刊) で作成したものです。
光度グラフはComet for Windowsで作成したものです。

---------------------------------------------------------------------

Copyright(C) Seiichi Yoshida (comet@aerith.net). All rights reserved.